owner,sensor,date,latitude,longitude,vertical_datum,wind_speed,wind_to_direction,wind_speed_of_gust,qcFlag 
TCOON,ioos:station:TCOON:068:1,2017-10-01T00:00:00Z,27.2970,-97.4049,0.0,6.7,47.0,7.5,'11111222,11111222,11111222' 
TCOON,ioos:station:TCOON:068:1,2017-10-01T00:06:00Z,27.2970,-97.4049,0.0,6.3,45.0,7.8,'11111222,11111222,11111222' 
TCOON,ioos:station:TCOON:068:1,2017-10-01T00:12:00Z,27.2970,-97.4049,0.0,6.0,46.0,7.1,'11111222,11111222,11111222' 
TCOON,ioos:station:TCOON:068:1,2017-10-01T00:18:00Z,27.2970,-97.4049,0.0,6.0,46.0,7.1,'1111122,1111122,1111122' 
TCOON,ioos:station:TCOON:068:1,2017-10-01T00:24:00Z,27.2970,-97.4049,0.0,6.5,49.0,7.3,'11111222,11111222,11111222' 
TCOON,ioos:station:TCOON:068:1,2017-10-01T00:30:00Z,27.2970,-97.4049,0.0,5.9,50.0,7.3,'11111222,11111222,11111222' 
TCOON,ioos:station:TCOON:068:1,2017-10-01T00:36:00Z,27.2970,-97.4049,0.0,6.3,51.0,7.5,'11111222,11111222,11111222' 
TCOON,ioos:station:TCOON:068:1,2017-10-01T00:42:00Z,27.2970,-97.4049,0.0,6.6,49.0,7.4,'11111222,11111222,11111222' 
TCOON,ioos:station:TCOON:068:1,2017-10-01T00:48:00Z,27.2970,-97.4049,0.0,6.4,51.0,7.2,'11111222,11111222,11111222' 
TCOON,ioos:station:TCOON:068:1,2017-10-01T00:54:00Z,27.2970,-97.4049,0.0,6.1,48.0,6.8,'11111222,11111222,11111222' 
TCOON,ioos:station:TCOON:068:1,2017-10-01T01:00:00Z,27.2970,-97.4049,0.0,5.8,49.0,7.0,'11111222,11111222,11111222' 
TCOON,ioos:station:TCOON:068:1,2017-10-01T01:06:00Z,27.2970,-97.4049,0.0,6.1,49.0,7.1,'11111222,11111222,11111222' 
TCOON,ioos:station:TCOON:068:1,2017-10-01T01:12:00Z,27.2970,-97.4049,0.0,6.2,50.0,6.9,'11111222,11111222,11111222' 
TCOON,ioos:station:TCOON:068:1,2017-10-01T01:18:00Z,27.2970,-97.4049,0.0,6.2,50.0,6.9,'1111122,1111122,1111122' 
TCOON,ioos:station:TCOON:068:1,2017-10-01T01:24:00Z,27.2970,-97.4049,0.0,5.7,51.0,6.7,'11111222,11111222,11111222' 
TCOON,ioos:station:TCOON:068:1,2017-10-01T01:30:00Z,27.2970,-97.4049,0.0,5.8,46.0,6.6,'11111222,11111222,11111222' 
TCOON,ioos:station:TCOON:068:1,2017-10-01T01:36:00Z,27.2970,-97.4049,0.0,5.0,53.0,6.7,'11111222,11111222,11111222' 
TCOON,ioos:station:TCOON:068:1,2017-10-01T01:42:00Z,27.2970,-97.4049,0.0,5.3,50.0,6.1,'11111222,11111222,11111222' 
TCOON,ioos:station:TCOON:068:1,2017-10-01T01:48:00Z,27.2970,-97.4049,0.0,5.2,55.0,5.9,'11111222,11111222,11111222' 
TCOON,ioos:station:TCOON:068:1,2017-10-01T01:54:00Z,27.2970,-97.4049,0.0,4.8,52.0,5.5,'11111222,11111222,11111222' 
TCOON,ioos:station:TCOON:068:1,2017-10-01T02:00:00Z,27.2970,-97.4049,0.0,5.2,57.0,5.9,'11111222,11111222,11111222' 
TCOON,ioos:station:TCOON:068:1,2017-10-01T02:06:00Z,27.2970,-97.4049,0.0,4.7,54.0,5.9,'11111222,11111222,11111222' 
TCOON,ioos:station:TCOON:068:1,2017-10-01T02:12:00Z,27.2970,-97.4049,0.0,5.0,50.0,5.5,'11111222,11111222,11111222' 
TCOON,ioos:station:TCOON:068:1,2017-10-01T02:18:00Z,27.2970,-97.4049,0.0,5.0,50.0,5.5,'1111122,1111122,1111122' 
TCOON,ioos:station:TCOON:068:1,2017-10-01T02:24:00Z,27.2970,-97.4049,0.0,4.9,53.0,5.4,'11111222,11111222,11111222' 
TCOON,ioos:station:TCOON:068:1,2017-10-01T02:30:00Z,27.2970,-97.4049,0.0,5.3,53.0,6.0,'11111222,11111222,11111222' 
TCOON,ioos:station:TCOON:068:1,2017-10-01T02:36:00Z,27.2970,-97.4049,0.0,4.7,58.0,5.9,'11111222,11111222,11111222' 
TCOON,ioos:station:TCOON:068:1,2017-10-01T02:42:00Z,27.2970,-97.4049,0.0,4.6,60.0,5.4,'11111222,11111222,11111222' 
TCOON,ioos:station:TCOON:068:1,2017-10-01T02:48:00Z,27.2970,-97.4049,0.0,4.8,59.0,5.7,'11111222,11111222,11111222' 
TCOON,ioos:station:TCOON:068:1,2017-10-01T02:54:00Z,27.2970,-97.4049,0.0,5.0,65.0,5.8,'11111222,11111222,11111222' 
TCOON,ioos:station:TCOON:068:1,2017-10-01T03:00:00Z,27.2970,-97.4049,0.0,4.7,65.0,5.2,'11111222,11111222,11111222' 
TCOON,ioos:station:TCOON:068:1,2017-10-01T03:06:00Z,27.2970,-97.4049,0.0,4.8,71.0,5.7,'11111222,11111222,11111222' 
TCOON,ioos:station:TCOON:068:1,2017-10-01T03:12:00Z,27.2970,-97.4049,0.0,4.9,65.0,5.7,'11111222,11111222,11111222' 
TCOON,ioos:station:TCOON:068:1,2017-10-01T03:18:00Z,27.2970,-97.4049,0.0,4.9,65.0,5.7,'1111122,1111122,1111122' 
TCOON,ioos:station:TCOON:068:1,2017-10-01T03:24:00Z,27.2970,-97.4049,0.0,4.9,65.0,5.4,'11111222,11111222,11111222' 
TCOON,ioos:station:TCOON:068:1,2017-10-01T03:30:00Z,27.2970,-97.4049,0.0,4.6,67.0,5.4,'11111222,11111222,11111222' 
TCOON,ioos:station:TCOON:068:1,2017-10-01T03:36:00Z,27.2970,-97.4049,0.0,4.5,67.0,5.2,'11111222,11111222,11111222' 
TCOON,ioos:station:TCOON:068:1,2017-10-01T03:42:00Z,27.2970,-97.4049,0.0,4.7,63.0,5.1,'11111222,11111222,11111222' 
TCOON,ioos:station:TCOON:068:1,2017-10-01T03:48:00Z,27.2970,-97.4049,0.0,4.4,66.0,5.1,'11111222,11111222,11111222' 
TCOON,ioos:station:TCOON:068:1,2017-10-01T03:54:00Z,27.2970,-97.4049,0.0,4.5,61.0,5.4,'11111222,11111222,11111222' 
TCOON,ioos:station:TCOON:068:1,2017-10-01T04:00:00Z,27.2970,-97.4049,0.0,3.9,66.0,5.4,'11111222,11111222,11111222' 
TCOON,ioos:station:TCOON:068:1,2017-10-01T04:06:00Z,27.2970,-97.4049,0.0,4.0,65.0,4.5,'11111222,11111222,11111222' 
TCOON,ioos:station:TCOON:068:1,2017-10-01T04:12:00Z,27.2970,-97.4049,0.0,4.0,67.0,5.2,'11111222,11111222,11111222' 
TCOON,ioos:station:TCOON:068:1,2017-10-01T04:18:00Z,27.2970,-97.4049,0.0,4.0,67.0,5.2,'1111122,1111122,1111122' 
TCOON,ioos:station:TCOON:068:1,2017-10-01T04:24:00Z,27.2970,-97.4049,0.0,4.7,61.0,5.0,'11111222,11111222,11111222' 
TCOON,ioos:station:TCOON:068:1,2017-10-01T04:30:00Z,27.2970,-97.4049,0.0,3.9,58.0,4.8,'11111222,11111222,11111222' 
TCOON,ioos:station:TCOON:068:1,2017-10-01T04:36:00Z,27.2970,-97.4049,0.0,4.5,59.0,5.1,'11111222,11111222,11111222' 
TCOON,ioos:station:TCOON:068:1,2017-10-01T04:42:00Z,27.2970,-97.4049,0.0,4.3,55.0,5.0,'11111222,11111222,11111222' 
TCOON,ioos:station:TCOON:068:1,2017-10-01T04:48:00Z,27.2970,-97.4049,0.0,3.9,57.0,5.0,'11111222,11111222,11111222' 
TCOON,ioos:station:TCOON:068:1,2017-10-01T04:54:00Z,27.2970,-97.4049,0.0,4.0,53.0,4.4,'11111222,11111222,11111222' 
TCOON,ioos:station:TCOON:068:1,2017-10-01T05:00:00Z,27.2970,-97.4049,0.0,3.5,53.0,4.4,'11111222,11111222,11111222' 
TCOON,ioos:station:TCOON:068:1,2017-10-01T05:06:00Z,27.2970,-97.4049,0.0,4.0,53.0,4.5,'11111222,11111222,11111222' 
TCOON,ioos:station:TCOON:068:1,2017-10-01T05:12:00Z,27.2970,-97.4049,0.0,3.9,55.0,4.8,'11111222,11111222,11111222' 
TCOON,ioos:station:TCOON:068:1,2017-10-01T05:18:00Z,27.2970,-97.4049,0.0,3.9,55.0,4.8,'1111122,1111122,1111122' 
TCOON,ioos:station:TCOON:068:1,2017-10-01T05:24:00Z,27.2970,-97.4049,0.0,3.7,51.0,4.3,'11111222,11111222,11111222' 
TCOON,ioos:station:TCOON:068:1,2017-10-01T05:30:00Z,27.2970,-97.4049,0.0,3.7,47.0,4.1,'11111222,11111222,11111222' 
TCOON,ioos:station:TCOON:068:1,2017-10-01T05:36:00Z,27.2970,-97.4049,0.0,3.6,50.0,4.1,'11111222,11111222,11111222' 
TCOON,ioos:station:TCOON:068:1,2017-10-01T05:42:00Z,27.2970,-97.4049,0.0,3.6,51.0,4.1,'11111222,11111222,11111222' 
TCOON,ioos:station:TCOON:068:1,2017-10-01T05:48:00Z,27.2970,-97.4049,0.0,3.6,51.0,4.2,'11111222,11111222,11111222' 
TCOON,ioos:station:TCOON:068:1,2017-10-01T05:54:00Z,27.2970,-97.4049,0.0,3.5,56.0,4.3,'11111222,11111222,11111222' 
TCOON,ioos:station:TCOON:068:1,2017-10-01T06:00:00Z,27.2970,-97.4049,0.0,3.7,53.0,4.3,'11111222,11111222,11111222' 
TCOON,ioos:station:TCOON:068:1,2017-10-01T06:06:00Z,27.2970,-97.4049,0.0,3.6,55.0,4.1,'11111222,11111222,11111222' 
TCOON,ioos:station:TCOON:068:1,2017-10-01T06:12:00Z,27.2970,-97.4049,0.0,3.9,53.0,4.4,'11111222,11111222,11111222' 
TCOON,ioos:station:TCOON:068:1,2017-10-01T06:18:00Z,27.2970,-97.4049,0.0,3.9,53.0,4.4,'1111122,1111122,1111122' 
TCOON,ioos:station:TCOON:068:1,2017-10-01T06:24:00Z,27.2970,-97.4049,0.0,3.5,51.0,4.0,'11111222,11111222,11111222' 
TCOON,ioos:station:TCOON:068:1,2017-10-01T06:30:00Z,27.2970,-97.4049,0.0,3.5,52.0,4.4,'11111222,11111222,11111222' 
TCOON,ioos:station:TCOON:068:1,2017-10-01T06:36:00Z,27.2970,-97.4049,0.0,3.7,49.0,4.1,'11111222,11111222,11111222' 
TCOON,ioos:station:TCOON:068:1,2017-10-01T06:42:00Z,27.2970,-97.4049,0.0,3.8,52.0,4.3,'11111222,11111222,11111222' 
TCOON,ioos:station:TCOON:068:1,2017-10-01T06:48:00Z,27.2970,-97.4049,0.0,3.6,51.0,4.0,'11111222,11111222,11111222' 
TCOON,ioos:station:TCOON:068:1,2017-10-01T06:54:00Z,27.2970,-97.4049,0.0,3.7,42.0,4.2,'11111222,11111222,11111222' 
TCOON,ioos:station:TCOON:068:1,2017-10-01T07:00:00Z,27.2970,-97.4049,0.0,3.6,42.0,4.3,'11111222,11111222,11111222' 
TCOON,ioos:station:TCOON:068:1,2017-10-01T07:06:00Z,27.2970,-97.4049,0.0,4.0,41.0,4.5,'11111222,11111222,11111222' 
TCOON,ioos:station:TCOON:068:1,2017-10-01T07:12:00Z,27.2970,-97.4049,0.0,3.7,38.0,5.3,'11111222,11111222,11111222' 
TCOON,ioos:station:TCOON:068:1,2017-10-01T07:18:00Z,27.2970,-97.4049,0.0,3.7,38.0,5.3,'1111122,1111122,1111122' 
TCOON,ioos:station:TCOON:068:1,2017-10-01T07:24:00Z,27.2970,-97.4049,0.0,3.7,36.0,4.6,'11111222,11111222,11111222' 
TCOON,ioos:station:TCOON:068:1,2017-10-01T07:30:00Z,27.2970,-97.4049,0.0,3.6,32.0,4.5,'11111222,11111222,11111222' 
TCOON,ioos:station:TCOON:068:1,2017-10-01T07:36:00Z,27.2970,-97.4049,0.0,3.1,26.0,4.3,'11111222,11111222,11111222' 
TCOON,ioos:station:TCOON:068:1,2017-10-01T07:42:00Z,27.2970,-97.4049,0.0,3.7,24.0,4.3,'11111222,11111222,11111222' 
TCOON,ioos:station:TCOON:068:1,2017-10-01T07:48:00Z,27.2970,-97.4049,0.0,2.9,354.0,5.0,'11111222,11111222,11111222' 
TCOON,ioos:station:TCOON:068:1,2017-10-01T07:54:00Z,27.2970,-97.4049,0.0,3.1,357.0,3.4,'11111222,11111222,11111222' 
TCOON,ioos:station:TCOON:068:1,2017-10-01T08:00:00Z,27.2970,-97.4049,0.0,2.2,6.0,3.1,'11111222,11111222,11111222' 
TCOON,ioos:station:TCOON:068:1,2017-10-01T08:06:00Z,27.2970,-97.4049,0.0,3.1,18.0,4.5,'11111222,11111222,11111222' 
TCOON,ioos:station:TCOON:068:1,2017-10-01T08:12:00Z,27.2970,-97.4049,0.0,2.6,355.0,3.9,'11111222,11111222,11111222' 
TCOON,ioos:station:TCOON:068:1,2017-10-01T08:18:00Z,27.2970,-97.4049,0.0,2.6,355.0,3.9,'1111122,1111122,1111122' 
TCOON,ioos:station:TCOON:068:1,2017-10-01T08:24:00Z,27.2970,-97.4049,0.0,2.5,360.0,3.0,'11111222,11144222,11111222' 
TCOON,ioos:station:TCOON:068:1,2017-10-01T08:30:00Z,27.2970,-97.4049,0.0,2.6,344.0,3.2,'11111222,11111222,11111222' 
TCOON,ioos:station:TCOON:068:1,2017-10-01T08:36:00Z,27.2970,-97.4049,0.0,2.9,357.0,3.7,'11111222,11111222,11111222' 
TCOON,ioos:station:TCOON:068:1,2017-10-01T08:42:00Z,27.2970,-97.4049,0.0,2.8,356.0,3.4,'11111222,11111222,11111222' 
TCOON,ioos:station:TCOON:068:1,2017-10-01T08:48:00Z,27.2970,-97.4049,0.0,2.7,348.0,3.2,'11111222,11111222,11111222' 
TCOON,ioos:station:TCOON:068:1,2017-10-01T08:54:00Z,27.2970,-97.4049,0.0,3.3,343.0,3.7,'11111222,11111222,11111222' 
TCOON,ioos:station:TCOON:068:1,2017-10-01T09:00:00Z,27.2970,-97.4049,0.0,3.2,345.0,3.7,'11111222,11111222,11111222' 
TCOON,ioos:station:TCOON:068:1,2017-10-01T09:06:00Z,27.2970,-97.4049,0.0,3.0,347.0,3.8,'11111222,11111222,11111222' 
TCOON,ioos:station:TCOON:068:1,2017-10-01T09:12:00Z,27.2970,-97.4049,0.0,2.7,346.0,3.5,'11111222,11111222,11111222' 
TCOON,ioos:station:TCOON:068:1,2017-10-01T09:18:00Z,27.2970,-97.4049,0.0,2.7,346.0,3.5,'1111122,1111122,1111122' 
TCOON,ioos:station:TCOON:068:1,2017-10-01T09:24:00Z,27.2970,-97.4049,0.0,2.9,348.0,3.4,'11111222,11111222,11111222' 
TCOON,ioos:station:TCOON:068:1,2017-10-01T09:30:00Z,27.2970,-97.4049,0.0,2.9,5.0,3.2,'11111222,11111222,11111222' 
TCOON,ioos:station:TCOON:068:1,2017-10-01T09:36:00Z,27.2970,-97.4049,0.0,3.0,346.0,3.5,'11111222,11111222,11111222' 
TCOON,ioos:station:TCOON:068:1,2017-10-01T09:42:00Z,27.2970,-97.4049,0.0,2.9,346.0,3.5,'11111222,11111222,11111222' 
TCOON,ioos:station:TCOON:068:1,2017-10-01T09:48:00Z,27.2970,-97.4049,0.0,2.5,342.0,3.4,'11111222,11111222,11111222' 
TCOON,ioos:station:TCOON:068:1,2017-10-01T09:54:00Z,27.2970,-97.4049,0.0,2.8,335.0,3.1,'11111222,11111222,11111222' 
TCOON,ioos:station:TCOON:068:1,2017-10-01T10:00:00Z,27.2970,-97.4049,0.0,2.5,341.0,2.9,'11111222,11111222,11111222' 
TCOON,ioos:station:TCOON:068:1,2017-10-01T10:06:00Z,27.2970,-97.4049,0.0,2.7,334.0,3.1,'11111222,11111222,11111222' 
TCOON,ioos:station:TCOON:068:1,2017-10-01T10:12:00Z,27.2970,-97.4049,0.0,2.4,337.0,3.3,'11111222,11111222,11111222' 
TCOON,ioos:station:TCOON:068:1,2017-10-01T10:18:00Z,27.2970,-97.4049,0.0,2.4,337.0,3.3,'1111122,1111122,1111122' 
TCOON,ioos:station:TCOON:068:1,2017-10-01T10:24:00Z,27.2970,-97.4049,0.0,3.0,332.0,3.4,'11111222,11111222,11111222' 
TCOON,ioos:station:TCOON:068:1,2017-10-01T10:30:00Z,27.2970,-97.4049,0.0,2.7,333.0,3.3,'11111222,11111222,11111222' 
TCOON,ioos:station:TCOON:068:1,2017-10-01T10:36:00Z,27.2970,-97.4049,0.0,2.3,337.0,2.8,'11111222,11111222,11111222' 
TCOON,ioos:station:TCOON:068:1,2017-10-01T10:42:00Z,27.2970,-97.4049,0.0,3.0,324.0,3.5,'11111222,11111222,11111222' 
TCOON,ioos:station:TCOON:068:1,2017-10-01T10:48:00Z,27.2970,-97.4049,0.0,3.3,333.0,4.1,'11111222,11111222,11111222' 
TCOON,ioos:station:TCOON:068:1,2017-10-01T10:54:00Z,27.2970,-97.4049,0.0,3.2,333.0,4.0,'11111222,11111222,11111222' 
TCOON,ioos:station:TCOON:068:1,2017-10-01T11:00:00Z,27.2970,-97.4049,0.0,2.8,341.0,3.4,'11111222,11111222,11111222' 
TCOON,ioos:station:TCOON:068:1,2017-10-01T11:06:00Z,27.2970,-97.4049,0.0,2.8,356.0,3.3,'11111222,11111222,11111222' 
TCOON,ioos:station:TCOON:068:1,2017-10-01T11:12:00Z,27.2970,-97.4049,0.0,2.7,356.0,3.1,'11111222,11111222,11111222' 
TCOON,ioos:station:TCOON:068:1,2017-10-01T11:18:00Z,27.2970,-97.4049,0.0,2.7,356.0,3.1,'1111122,1111122,1111122' 
TCOON,ioos:station:TCOON:068:1,2017-10-01T11:24:00Z,27.2970,-97.4049,0.0,2.7,341.0,3.3,'11111222,11111222,11111222' 
TCOON,ioos:station:TCOON:068:1,2017-10-01T11:30:00Z,27.2970,-97.4049,0.0,1.9,8.0,2.8,'11111222,11111222,11111222' 
TCOON,ioos:station:TCOON:068:1,2017-10-01T11:36:00Z,27.2970,-97.4049,0.0,1.6,23.0,2.1,'11111222,11111222,11111222' 
TCOON,ioos:station:TCOON:068:1,2017-10-01T11:42:00Z,27.2970,-97.4049,0.0,2.4,50.0,3.3,'11111222,11111222,11111222' 
TCOON,ioos:station:TCOON:068:1,2017-10-01T11:48:00Z,27.2970,-97.4049,0.0,3.3,49.0,4.0,'11111222,11111222,11111222' 
TCOON,ioos:station:TCOON:068:1,2017-10-01T11:54:00Z,27.2970,-97.4049,0.0,3.7,56.0,4.3,'11111222,11111222,11111222' 
TCOON,ioos:station:TCOON:068:1,2017-10-01T12:00:00Z,27.2970,-97.4049,0.0,3.8,57.0,4.2,'11111222,11111222,11111222' 
TCOON,ioos:station:TCOON:068:1,2017-10-01T12:06:00Z,27.2970,-97.4049,0.0,4.1,54.0,4.5,'11111222,11111222,11111222' 
TCOON,ioos:station:TCOON:068:1,2017-10-01T12:12:00Z,27.2970,-97.4049,0.0,3.5,54.0,4.5,'11111222,11111222,11111222' 
TCOON,ioos:station:TCOON:068:1,2017-10-01T12:18:00Z,27.2970,-97.4049,0.0,3.5,54.0,4.5,'1111122,1111122,1111122' 
TCOON,ioos:station:TCOON:068:1,2017-10-01T12:24:00Z,27.2970,-97.4049,0.0,2.5,35.0,3.7,'11111222,11111222,11111222' 
TCOON,ioos:station:TCOON:068:1,2017-10-01T12:30:00Z,27.2970,-97.4049,0.0,3.0,354.0,4.0,'11111222,11111222,11111222' 
TCOON,ioos:station:TCOON:068:1,2017-10-01T12:36:00Z,27.2970,-97.4049,0.0,3.0,331.0,3.8,'11111222,11111222,11111222' 
TCOON,ioos:station:TCOON:068:1,2017-10-01T12:42:00Z,27.2970,-97.4049,0.0,3.5,319.0,4.0,'11111222,11111222,11111222' 
TCOON,ioos:station:TCOON:068:1,2017-10-01T12:48:00Z,27.2970,-97.4049,0.0,2.9,324.0,3.8,'11111222,11111222,11111222' 
TCOON,ioos:station:TCOON:068:1,2017-10-01T12:54:00Z,27.2970,-97.4049,0.0,2.6,324.0,3.1,'11111222,11111222,11111222' 
TCOON,ioos:station:TCOON:068:1,2017-10-01T13:00:00Z,27.2970,-97.4049,0.0,2.3,330.0,2.9,'11111222,11111222,11111222' 
TCOON,ioos:station:TCOON:068:1,2017-10-01T13:06:00Z,27.2970,-97.4049,0.0,1.7,22.0,2.7,'11111222,11111222,11111222' 
TCOON,ioos:station:TCOON:068:1,2017-10-01T13:12:00Z,27.2970,-97.4049,0.0,1.8,19.0,2.6,'11111222,11111222,11111222' 
TCOON,ioos:station:TCOON:068:1,2017-10-01T13:18:00Z,27.2970,-97.4049,0.0,1.8,19.0,2.6,'1111122,1111122,1111122' 
TCOON,ioos:station:TCOON:068:1,2017-10-01T13:24:00Z,27.2970,-97.4049,0.0,4.4,59.0,4.9,'11111222,11111222,11111222' 
TCOON,ioos:station:TCOON:068:1,2017-10-01T13:30:00Z,27.2970,-97.4049,0.0,3.7,55.0,4.5,'11111222,11111222,11111222' 
TCOON,ioos:station:TCOON:068:1,2017-10-01T13:36:00Z,27.2970,-97.4049,0.0,3.8,64.0,4.6,'11111222,11111222,11111222' 
TCOON,ioos:station:TCOON:068:1,2017-10-01T13:42:00Z,27.2970,-97.4049,0.0,4.7,64.0,5.1,'11111222,11111222,11111222' 
TCOON,ioos:station:TCOON:068:1,2017-10-01T13:48:00Z,27.2970,-97.4049,0.0,4.7,62.0,5.2,'11111222,11111222,11111222' 
TCOON,ioos:station:TCOON:068:1,2017-10-01T13:54:00Z,27.2970,-97.4049,0.0,4.7,68.0,5.2,'11111222,11111222,11111222' 
TCOON,ioos:station:TCOON:068:1,2017-10-01T14:00:00Z,27.2970,-97.4049,0.0,4.9,68.0,5.4,'11111222,11111222,11111222' 
TCOON,ioos:station:TCOON:068:1,2017-10-01T14:06:00Z,27.2970,-97.4049,0.0,4.6,66.0,5.4,'11111222,11111222,11111222' 
TCOON,ioos:station:TCOON:068:1,2017-10-01T14:12:00Z,27.2970,-97.4049,0.0,4.5,70.0,5.4,'11111222,11111222,11111222' 
TCOON,ioos:station:TCOON:068:1,2017-10-01T14:18:00Z,27.2970,-97.4049,0.0,4.5,70.0,5.4,'1111122,1111122,1111122' 
TCOON,ioos:station:TCOON:068:1,2017-10-01T14:24:00Z,27.2970,-97.4049,0.0,4.7,57.0,5.8,'11111222,11111222,11111222' 
TCOON,ioos:station:TCOON:068:1,2017-10-01T14:30:00Z,27.2970,-97.4049,0.0,5.8,62.0,6.6,'11111222,11111222,11111222' 
TCOON,ioos:station:TCOON:068:1,2017-10-01T14:36:00Z,27.2970,-97.4049,0.0,4.4,69.0,5.6,'11111222,11111222,11111222' 
TCOON,ioos:station:TCOON:068:1,2017-10-01T14:42:00Z,27.2970,-97.4049,0.0,4.8,47.0,5.4,'11111222,11111222,11111222' 
TCOON,ioos:station:TCOON:068:1,2017-10-01T14:48:00Z,27.2970,-97.4049,0.0,4.7,73.0,5.6,'11111222,11111222,11111222' 
TCOON,ioos:station:TCOON:068:1,2017-10-01T14:54:00Z,27.2970,-97.4049,0.0,4.5,56.0,5.4,'11111222,11111222,11111222' 
TCOON,ioos:station:TCOON:068:1,2017-10-01T15:00:00Z,27.2970,-97.4049,0.0,4.1,59.0,5.2,'11111222,11111222,11111222' 
TCOON,ioos:station:TCOON:068:1,2017-10-01T15:06:00Z,27.2970,-97.4049,0.0,4.1,62.0,5.1,'11111222,11111222,11111222' 
TCOON,ioos:station:TCOON:068:1,2017-10-01T15:12:00Z,27.2970,-97.4049,0.0,3.8,57.0,5.8,'11111222,11111222,11111222' 
TCOON,ioos:station:TCOON:068:1,2017-10-01T15:18:00Z,27.2970,-97.4049,0.0,3.8,57.0,5.8,'1111122,1111122,1111122' 
TCOON,ioos:station:TCOON:068:1,2017-10-01T15:24:00Z,27.2970,-97.4049,0.0,4.6,66.0,5.3,'11111222,11111222,11111222' 
TCOON,ioos:station:TCOON:068:1,2017-10-01T15:30:00Z,27.2970,-97.4049,0.0,4.6,55.0,5.7,'11111222,11111222,11111222' 
TCOON,ioos:station:TCOON:068:1,2017-10-01T15:36:00Z,27.2970,-97.4049,0.0,4.2,64.0,4.9,'11111222,11111222,11111222' 
TCOON,ioos:station:TCOON:068:1,2017-10-01T15:42:00Z,27.2970,-97.4049,0.0,4.0,60.0,5.3,'11111222,11111222,11111222' 
TCOON,ioos:station:TCOON:068:1,2017-10-01T15:48:00Z,27.2970,-97.4049,0.0,4.6,65.0,5.7,'11111222,11111222,11111222' 
TCOON,ioos:station:TCOON:068:1,2017-10-01T15:54:00Z,27.2970,-97.4049,0.0,4.1,59.0,5.5,'11111222,11111222,11111222' 
TCOON,ioos:station:TCOON:068:1,2017-10-01T16:00:00Z,27.2970,-97.4049,0.0,4.6,55.0,5.9,'11111222,11111222,11111222' 
TCOON,ioos:station:TCOON:068:1,2017-10-01T16:06:00Z,27.2970,-97.4049,0.0,4.1,65.0,5.4,'11111222,11111222,11111222' 
TCOON,ioos:station:TCOON:068:1,2017-10-01T16:12:00Z,27.2970,-97.4049,0.0,4.0,74.0,5.9,'11111222,11111222,11111222' 
TCOON,ioos:station:TCOON:068:1,2017-10-01T16:18:00Z,27.2970,-97.4049,0.0,4.0,74.0,5.9,'1111122,1111122,1111122' 
TCOON,ioos:station:TCOON:068:1,2017-10-01T16:24:00Z,27.2970,-97.4049,0.0,4.2,53.0,5.5,'11111222,11111222,11111222' 
TCOON,ioos:station:TCOON:068:1,2017-10-01T16:30:00Z,27.2970,-97.4049,0.0,4.2,65.0,5.8,'11111222,11111222,11111222' 
TCOON,ioos:station:TCOON:068:1,2017-10-01T16:36:00Z,27.2970,-97.4049,0.0,4.2,63.0,5.6,'11111222,11111222,11111222' 
TCOON,ioos:station:TCOON:068:1,2017-10-01T16:42:00Z,27.2970,-97.4049,0.0,4.3,61.0,5.6,'11111222,11111222,11111222' 
TCOON,ioos:station:TCOON:068:1,2017-10-01T16:48:00Z,27.2970,-97.4049,0.0,4.1,61.0,5.9,'11111222,11111222,11111222' 
TCOON,ioos:station:TCOON:068:1,2017-10-01T16:54:00Z,27.2970,-97.4049,0.0,4.1,79.0,4.9,'11111222,11111222,11111222' 
TCOON,ioos:station:TCOON:068:1,2017-10-01T17:00:00Z,27.2970,-97.4049,0.0,4.8,68.0,5.6,'11111222,11111222,11111222' 
TCOON,ioos:station:TCOON:068:1,2017-10-01T17:06:00Z,27.2970,-97.4049,0.0,3.5,65.0,5.5,'11111222,11111222,11111222' 
TCOON,ioos:station:TCOON:068:1,2017-10-01T17:12:00Z,27.2970,-97.4049,0.0,4.3,68.0,5.0,'11111222,11111222,11111222' 
TCOON,ioos:station:TCOON:068:1,2017-10-01T17:18:00Z,27.2970,-97.4049,0.0,4.3,68.0,5.0,'1111122,1111122,1111122' 
TCOON,ioos:station:TCOON:068:1,2017-10-01T17:24:00Z,27.2970,-97.4049,0.0,4.4,72.0,5.5,'11111222,11111222,11111222' 
TCOON,ioos:station:TCOON:068:1,2017-10-01T17:30:00Z,27.2970,-97.4049,0.0,4.8,58.0,5.7,'11111222,11111222,11111222' 
TCOON,ioos:station:TCOON:068:1,2017-10-01T17:36:00Z,27.2970,-97.4049,0.0,5.1,67.0,6.2,'11111222,11111222,11111222' 
TCOON,ioos:station:TCOON:068:1,2017-10-01T17:42:00Z,27.2970,-97.4049,0.0,4.5,64.0,6.3,'11111222,11111222,11111222' 
TCOON,ioos:station:TCOON:068:1,2017-10-01T17:48:00Z,27.2970,-97.4049,0.0,5.2,71.0,6.1,'11111222,11111222,11111222' 
TCOON,ioos:station:TCOON:068:1,2017-10-01T17:54:00Z,27.2970,-97.4049,0.0,4.8,75.0,6.5,'11111222,11111222,11111222' 
TCOON,ioos:station:TCOON:068:1,2017-10-01T18:00:00Z,27.2970,-97.4049,0.0,5.0,83.0,6.3,'11111222,11111222,11111222' 
TCOON,ioos:station:TCOON:068:1,2017-10-01T18:06:00Z,27.2970,-97.4049,0.0,4.6,84.0,5.8,'11111222,11111222,11111222' 
TCOON,ioos:station:TCOON:068:1,2017-10-01T18:12:00Z,27.2970,-97.4049,0.0,5.0,74.0,6.0,'11111222,11111222,11111222' 
TCOON,ioos:station:TCOON:068:1,2017-10-01T18:18:00Z,27.2970,-97.4049,0.0,5.0,74.0,6.0,'1111122,1111122,1111122' 
TCOON,ioos:station:TCOON:068:1,2017-10-01T18:24:00Z,27.2970,-97.4049,0.0,4.7,67.0,6.3,'11111222,11111222,11111222' 
TCOON,ioos:station:TCOON:068:1,2017-10-01T18:30:00Z,27.2970,-97.4049,0.0,5.1,68.0,6.0,'11111222,11111222,11111222' 
TCOON,ioos:station:TCOON:068:1,2017-10-01T18:36:00Z,27.2970,-97.4049,0.0,4.3,72.0,6.4,'11111222,11111222,11111222' 
TCOON,ioos:station:TCOON:068:1,2017-10-01T18:42:00Z,27.2970,-97.4049,0.0,5.2,83.0,5.9,'11111222,11111222,11111222' 
TCOON,ioos:station:TCOON:068:1,2017-10-01T18:48:00Z,27.2970,-97.4049,0.0,5.1,79.0,6.6,'11111222,11111222,11111222' 
TCOON,ioos:station:TCOON:068:1,2017-10-01T18:54:00Z,27.2970,-97.4049,0.0,4.9,92.0,7.3,'11111222,11111222,11111222' 
TCOON,ioos:station:TCOON:068:1,2017-10-01T19:00:00Z,27.2970,-97.4049,0.0,5.8,76.0,7.2,'11111222,11111222,11111222' 
TCOON,ioos:station:TCOON:068:1,2017-10-01T19:06:00Z,27.2970,-97.4049,0.0,4.8,89.0,7.0,'11111222,11111222,11111222' 
TCOON,ioos:station:TCOON:068:1,2017-10-01T19:12:00Z,27.2970,-97.4049,0.0,4.7,84.0,6.5,'11111222,11111222,11111222' 
TCOON,ioos:station:TCOON:068:1,2017-10-01T19:18:00Z,27.2970,-97.4049,0.0,4.7,84.0,6.5,'1111122,1111122,1111122' 
TCOON,ioos:station:TCOON:068:1,2017-10-01T19:24:00Z,27.2970,-97.4049,0.0,5.4,96.0,7.2,'11111222,11111222,11111222' 
TCOON,ioos:station:TCOON:068:1,2017-10-01T19:30:00Z,27.2970,-97.4049,0.0,5.4,78.0,7.7,'11111222,11111222,11111222' 
TCOON,ioos:station:TCOON:068:1,2017-10-01T19:36:00Z,27.2970,-97.4049,0.0,5.2,92.0,7.3,'11111222,11111222,11111222' 
TCOON,ioos:station:TCOON:068:1,2017-10-01T19:42:00Z,27.2970,-97.4049,0.0,5.5,81.0,6.9,'11111222,11111222,11111222' 
TCOON,ioos:station:TCOON:068:1,2017-10-01T19:48:00Z,27.2970,-97.4049,0.0,4.7,99.0,7.9,'11111222,11111222,11111222' 
TCOON,ioos:station:TCOON:068:1,2017-10-01T19:54:00Z,27.2970,-97.4049,0.0,4.9,76.0,7.3,'11111222,11111222,11111222' 
TCOON,ioos:station:TCOON:068:1,2017-10-01T20:00:00Z,27.2970,-97.4049,0.0,4.5,94.0,6.3,'11111222,11111222,11111222' 
TCOON,ioos:station:TCOON:068:1,2017-10-01T20:06:00Z,27.2970,-97.4049,0.0,5.4,82.0,6.9,'11111222,11111222,11111222' 
TCOON,ioos:station:TCOON:068:1,2017-10-01T20:12:00Z,27.2970,-97.4049,0.0,5.4,97.0,7.1,'11111222,11111222,11111222' 
TCOON,ioos:station:TCOON:068:1,2017-10-01T20:18:00Z,27.2970,-97.4049,0.0,5.4,97.0,7.1,'1111122,1111122,1111122' 
TCOON,ioos:station:TCOON:068:1,2017-10-01T20:24:00Z,27.2970,-97.4049,0.0,5.5,71.0,6.6,'11111222,11111222,11111222' 
TCOON,ioos:station:TCOON:068:1,2017-10-01T20:30:00Z,27.2970,-97.4049,0.0,4.0,82.0,5.4,'11111222,11111222,11111222' 